Weather History for K0E0 - August, 2013

Change the Weather History Date:

Friday, August 2, 2013

  Actual Average (KABQ) Record (KABQ)
Temperature  
Mean Temperature 70 °F 77 °F  
Max Temperature 83 °F 88 °F 101 °F (1979)
Min Temperature 57 °F 66 °F 47 °F (1911)
Degree Days  
Heating Degree Days 0 0  
Month to date heating degree days 0  
Since 1 June heating degree days 4  
Since 1 July heating degree days 0  
Cooling Degree Days 5 12  
Month to date cooling degree days 24  
Year to date cooling degree days 835  
Since 1 June cooling degree days 737  
Growing Degree Days 20 (Base 50)    
Moisture  
Dew Point 55 °F    
Average Humidity 62    
Maximum Humidity 95    
Minimum Humidity 30    
Precipitation  
Precipitation 0.01 in 0.06 in 1.09 in (1935)
Month to date precipitation 0.12  
Year to date precipitation 4.82  
Snow  
Snow 0.00 in - - ()
Month to date snowfall  
Since 1 June snowfall  
Since 1 July snowfall  
Snow Depth -    
Sea Level Pressure  
Sea Level Pressure 30.23 in    
Wind  
Wind Speed 4 mph (NW)    
Max Wind Speed 20 mph    
Max Gust Speed 26 mph    
Visibility 10 miles    
Events Thunderstorm    
T = Trace of Precipitation, MM = Missing Value Source: NWS Daily Summary

Daily Weather History Graph

Daily Weather History Graph

Search for Another Location

Airport or City:

Trip Planner

Search our weather history database for the weather conditions in past years. The results will help you decide how hot, cold, wet, or windy it might be!

Date:

Astronomy

Aug. 02, 2013 Rise Set
Actual Time 6:14 AM MDT 8:05 PM MDT
Civil Twilight 5:46 AM MDT 8:33 PM MDT
Nautical Twilight 5:13 AM MDT 9:06 PM MDT
Astronomical Twilight 4:37 AM MDT 9:42 PM MDT
Moon 2:39 AM MDT (8/2) 5:03 PM MDT (8/2)
Length of Visible Light 14h 46m
Length of Day
13h 51m
Waning Crescent, 15% of the Moon is Illuminated
Aug 2
Waning Crescent
Aug 6
New
Aug 14
First Quarter
Aug 20
Full
Aug 28
Last Quarter

Hourly Weather History & Observations

Time (MDT) Temp. Heat Index Dew Point Humidity Pressure Visibility Wind Dir Wind Speed Gust Speed Precip Events Conditions
12:15 AM 61.7 °F - 59.4 °F 92% 30.28 in 10.0 mi Calm Calm - N/A   Mostly Cloudy
12:35 AM 61.0 °F - 59.0 °F 93% 30.27 in 10.0 mi North 3.5 mph - N/A   Scattered Clouds
12:55 AM 61.3 °F - 59.4 °F 93% 30.26 in 10.0 mi North 3.5 mph - N/A   Overcast
1:15 AM 61.7 °F - 59.4 °F 92% 30.26 in 10.0 mi Calm Calm - N/A   Overcast
1:35 AM 61.7 °F - 59.9 °F 94% 30.25 in 10.0 mi Calm Calm - N/A   Overcast
1:55 AM 61.0 °F - 59.2 °F 94% 30.24 in 10.0 mi NNW 3.5 mph - N/A   Mostly Cloudy
2:15 AM 60.8 °F - 59.0 °F 94% 30.23 in 10.0 mi Calm Calm - N/A   Scattered Clouds
2:35 AM 59.9 °F - 57.7 °F 93% 30.23 in 10.0 mi NW 3.5 mph - N/A   Clear
2:55 AM 59.4 °F - 57.7 °F 94% 30.23 in 7.0 mi NW 5.8 mph - N/A   Clear
4:15 AM 59.0 °F - 57.2 °F 94% 30.23 in 10.0 mi Calm Calm - N/A   Scattered Clouds
4:35 AM 58.5 °F - 56.7 °F 94% 30.23 in 7.0 mi NNW 5.8 mph - N/A   Mostly Cloudy
4:55 AM 57.9 °F - 56.5 °F 95% 30.23 in 7.0 mi Calm Calm - N/A   Mostly Cloudy
5:15 AM 58.5 °F - 57.0 °F 95% 30.23 in 10.0 mi Calm Calm - N/A   Overcast
5:35 AM 59.0 °F - 57.2 °F 94% 30.23 in 7.0 mi Calm Calm - N/A   Overcast
5:55 AM 59.4 °F - 57.6 °F 94% 30.23 in 10.0 mi Calm Calm - N/A   Overcast
6:15 AM 59.4 °F - 57.7 °F 94% 30.23 in 10.0 mi Calm Calm - N/A   Overcast
6:35 AM 59.9 °F - 58.1 °F 94% 30.24 in 10.0 mi Calm Calm - N/A   Overcast
6:55 AM 60.4 °F - 58.5 °F 93% 30.24 in 7.0 mi Calm Calm - N/A   Overcast
7:15 AM 61.3 °F - 58.6 °F 91% 30.25 in 10.0 mi Calm Calm - N/A   Scattered Clouds
7:35 AM 62.1 °F - 57.7 °F 86% 30.25 in 10.0 mi SSW 3.5 mph - N/A   Clear
7:55 AM 63.5 °F - 57.9 °F 82% 30.25 in 10.0 mi SSW 3.5 mph - N/A   Clear
8:15 AM 64.9 °F - 57.7 °F 77% 30.26 in 10.0 mi South 3.5 mph - N/A   Mostly Cloudy
8:35 AM 67.1 °F - 57.0 °F 70% 30.26 in 10.0 mi Calm Calm - N/A   Mostly Cloudy
8:55 AM 68.2 °F - 55.8 °F 64% 30.26 in 10.0 mi Calm Calm - N/A   Clear
9:15 AM 69.4 °F - 57.0 °F 65% 30.26 in 10.0 mi Calm Calm - N/A   Scattered Clouds
9:35 AM 69.6 °F - 58.5 °F 68% 30.26 in 10.0 mi North 4.6 mph - N/A   Scattered Clouds
9:55 AM 70.2 °F - 58.8 °F 67% 30.26 in 10.0 mi NNE 4.6 mph - N/A   Clear
10:15 AM 71.6 °F - 58.8 °F 64% 30.27 in 10.0 mi North 4.6 mph - N/A   Clear
10:35 AM 72.7 °F - 58.6 °F 61% 30.26 in 10.0 mi NNW 3.5 mph - N/A   Clear
10:55 AM 74.7 °F - 57.7 °F 55% 30.26 in 10.0 mi WNW 6.9 mph - N/A   Clear
11:15 AM 75.4 °F - 57.2 °F 53% 30.26 in 10.0 mi WNW 9.2 mph - N/A   Clear
11:35 AM 76.1 °F - 57.4 °F 52% 30.26 in 10.0 mi NW 8.1 mph - N/A   Scattered Clouds
11:55 AM 77.9 °F - 56.3 °F 47% 30.25 in 10.0 mi WNW 5.8 mph - N/A   Scattered Clouds
12:15 PM 77.7 °F - 55.4 °F 46% 30.24 in 10.0 mi NW 5.8 mph - N/A   Scattered Clouds
12:35 PM 79.5 °F - 53.8 °F 41% 30.23 in 10.0 mi NW 5.8 mph - N/A   Clear
12:55 PM 79.9 °F - 53.8 °F 40% 30.23 in 10.0 mi West 9.2 mph - N/A   Clear
1:15 PM 80.4 °F 80.2 °F 53.8 °F 40% 30.23 in 10.0 mi South 3.5 mph - N/A   Scattered Clouds
1:35 PM 82.2 °F 81.3 °F 53.6 °F 37% 30.22 in 10.0 mi WNW 8.1 mph - N/A   Scattered Clouds
1:55 PM 82.4 °F - 52.5 °F 35% 30.21 in 10.0 mi WNW 5.8 mph - N/A   Scattered Clouds
2:15 PM 83.3 °F - 51.6 °F 33% 30.20 in 10.0 mi NW 11.5 mph - N/A   Scattered Clouds
2:35 PM 82.4 °F - 51.3 °F 34% 30.20 in 10.0 mi ENE 4.6 mph - N/A   Scattered Clouds
2:55 PM 83.5 °F - 51.6 °F 33% 30.19 in 10.0 mi NW 11.5 mph - N/A   Clear
3:15 PM 82.4 °F - 51.6 °F 34% 30.18 in 10.0 mi North 9.2 mph - N/A   Clear
3:35 PM 81.3 °F - 51.1 °F 35% 30.17 in 10.0 mi NNW 3.5 mph - N/A   Clear
3:55 PM 81.3 °F - 50.7 °F 34% 30.17 in 10.0 mi NE 3.5 mph - N/A   Clear
4:15 PM 81.5 °F - 50.5 °F 34% 30.16 in 10.0 mi Calm Calm - N/A   Clear
4:35 PM 82.4 °F - 49.8 °F 32% 30.17 in 10.0 mi Calm Calm - N/A   Clear
4:55 PM 82.4 °F - 49.3 °F 31% 30.17 in 10.0 mi Calm Calm - N/A   Clear
5:15 PM 83.3 °F - 49.3 °F 31% 30.17 in 10.0 mi Calm Calm - N/A   Clear
5:35 PM 82.4 °F - 49.8 °F 32% 30.17 in 10.0 mi SW 5.8 mph - N/A   Clear
5:55 PM 83.3 °F - 49.1 °F 30% 30.16 in 10.0 mi Calm Calm - N/A   Clear
6:15 PM 81.7 °F - 50.0 °F 33% 30.16 in 10.0 mi WNW 3.5 mph - N/A   Clear
6:35 PM 80.1 °F - 50.4 °F 35% 30.16 in 10.0 mi NW 11.5 mph - N/A   Clear
6:55 PM 77.0 °F - 49.6 °F 38% 30.17 in 10.0 mi WNW 11.5 mph - N/A   Clear
7:15 PM 75.2 °F - 50.2 °F 41% 30.17 in 10.0 mi WNW 4.6 mph - N/A   Clear
7:35 PM 74.3 °F - 52.0 °F 46% 30.18 in 10.0 mi West 5.8 mph - N/A Thunderstorm Clear
7:55 PM 73.4 °F - 52.7 °F 48% 30.19 in 10.0 mi West 10.4 mph - N/A Thunderstorm Clear
8:15 PM 72.7 °F - 50.5 °F 46% 30.19 in 10.0 mi West 13.8 mph - N/A Thunderstorm Clear
8:35 PM 70.0 °F - 51.8 °F 52% 30.20 in 10.0 mi West 15.0 mph 21.9 mph N/A   Clear
8:55 PM 69.1 °F - 50.7 °F 52% 30.22 in 10.0 mi West 18.4 mph 23.0 mph N/A   Clear
9:15 PM 68.4 °F - 52.0 °F 56% 30.22 in 10.0 mi WNW 18.4 mph 21.9 mph N/A   Scattered Clouds
9:35 PM 67.8 °F - 53.1 °F 59% 30.22 in 10.0 mi WNW 17.3 mph - N/A   Mostly Cloudy
9:55 PM 68.0 °F - 51.6 °F 56% 30.24 in 10.0 mi WNW 19.6 mph 23.0 mph N/A   Mostly Cloudy
10:15 PM 66.7 °F - 51.8 °F 59% 30.25 in 10.0 mi WNW 18.4 mph 26.5 mph N/A   Scattered Clouds
10:35 PM 65.3 °F - 53.6 °F 66% 30.26 in 10.0 mi NNW 11.5 mph - N/A   Scattered Clouds
10:55 PM 64.8 °F - 54.0 °F 68% 30.26 in 10.0 mi NNW 11.5 mph - N/A   Clear
11:15 PM 64.4 °F - 53.8 °F 68% 30.26 in 10.0 mi NNW 9.2 mph - N/A   Clear
11:35 PM 63.3 °F - 54.1 °F 72% 30.26 in 10.0 mi Calm Calm - N/A   Clear
11:55 PM 62.6 °F - 54.3 °F 74% 30.27 in 10.0 mi NNE 12.7 mph - N/A   Clear